Terminal Aerodrome Forecast
Issued by NWS Quad Cities IA IL

Home | Current Version | Previous Version | Text Only | Print | Product List | Glossary On
Versions: 1 2 3 4 5 6 7 8 9 10 11 12 13 14 15 16 17 18 19 20 21 22 23 24 25 26
191
FTUS43 KDVN 280603 AAA
TAFMLI
TAF AMD
KMLI 280603Z 2806/2906 16012G18KT 6SM -RA SCT012 SCT025 BKN040
      TEMPO 2806/2808 4SM SHRA BR BKN025
     FM280800 19007KT 6SM BR OVC025
     FM281500 19012KT P6SM BKN040 PROB30 2821/2901 4SM TSRA BKN035CB
     FM290100 19007KT P6SM VCSH BKN040=

USA.gov is the U.S. government's official web portal to all federal, state and local government web resources and services.